Wind_Speed
37 39 39 38 38 36 34 33 32 30 29 28 27 27 28 30 30 30 30 29 33 35 39 43 50 52 52 49 46 43 38 36 39 32 42 47 52 41 33 32 30 30 28
38 39 39 38 36 35 34 31 29 28 27 27 27 28 28 28 29 30 31 31 32 34 37 39 46 53 55 52 48 48 42 39 37 39 37 36 47 44 39 34 33 31 29
39 39 38 37 36 34 33 31 29 28 26 26 26 26 27 28 29 30 30 30 32 34 35 39 42 50 55 54 51 50 46 39 47 40 44 47 44 43 36 34 34 32 30
39 38 37 36 35 34 33 30 29 28 28 27 26 25 28 29 30 31 32 33 34 35 35 36 43 44 55 57 54 50 51 48 47 42 55 51 44 37 36 35 36 34 32
39 37 36 35 34 33 32 30 28 29 28 28 27 26 28 29 30 32 33 35 36 36 37 38 38 44 51 58 56 51 52 46 49 43 51 49 39 37 39 38 37 35 33
37 35 33 33 32 31 31 29 27 27 28 28 27 26 26 28 30 30 32 35 36 38 38 39 38 40 46 57 56 53 57 54 53 51 50 44 42 40 40 40 38 36 34
34 32 32 32 32 31 30 28 27 26 26 28 29 29 26 27 30 30 32 34 37 38 39 40 40 41 44 54 57 59 58 57 54 46 46 42 40 43 43 41 39 38 35
34 34 33 31 31 30 28 27 28 28 27 27 30 30 26 23 29 30 34 33 34 36 40 41 41 42 42 55 60 63 62 62 49 47 45 44 43 44 44 42 40 39 37
33 32 31 32 32 31 29 28 29 28 26 21 25 28 26 19 26 25 31 31 31 35 37 41 42 40 42 56 63 67 63 64 62 68 59 46 45 46 45 44 43 40 39
30 29 30 32 33 32 31 30 28 26 25 21 21 24 24 23 21 25 28 26 28 30 34 39 41 40 42 57 65 69 65 62 55 66 59 49 48 48 47 46 44 42 41
28 29 30 32 33 32 30 29 27 25 25 24 22 22 23 23 21 22 24 26 27 30 32 35 40 42 44 58 65 74 63 62 65 52 55 51 51 50 49 47 46 44 42
27 27 29 31 32 31 30 28 26 25 25 25 24 24 25 26 25 25 25 26 27 30 34 37 42 41 47 59 68 69 60 60 67 72 60 54 53 52 51 49 47 45 43
26 28 30 32 31 31 31 29 27 26 25 25 24 25 25 24 24 25 27 28 29 26 35 40 40 40 53 66 69 57 60 53 49 78 62 55 54 54 52 50 48 45 44
28 31 32 32 33 33 31 28 28 28 26 24 22 23 22 19 19 21 24 30 32 27 33 38 37 52 67 70 63 58 56 49 61 67 57 54 56 55 53 51 48 46 44
28 31 33 34 33 32 30 28 28 26 24 23 23 21 20 17 14 17 25 31 32 31 34 37 51 60 60 65 62 64 60 74 67 61 55 54 56 54 53 50 48 46 43
27 31 33 34 33 31 29 30 27 24 23 21 16 12 8 6 14 20 27 35 37 36 26 35 50 57 65 52 55 61 61 68 64 59 53 54 54 54 52 49 47 45 43
28 33 35 35 32 31 31 30 28 25 17 13 12 8 6 17 20 24 34 37 38 37 37 43 49 55 55 59 60 61 66 63 61 56 52 52 53 52 50 48 46 43 42
30 34 35 35 30 30 32 33 26 17 14 12 16 20 25 23 27 31 35 37 38 44 49 50 52 60 55 50 56 64 84 52 59 51 47 49 52 50 49 46 44 43 41
30 34 36 32 29 32 34 30 19 20 21 21 29 31 36 32 33 38 41 45 47 52 48 52 52 47 56 51 55 65 75 66 57 49 44 45 49 48 47 45 43 41 40
32 35 38 32 32 35 36 30 32 35 37 37 33 34 37 35 35 42 51 57 42 41 48 47 53 49 46 53 69 63 73 65 57 50 46 43 45 47 45 44 42 40 38
33 36 37 32 34 38 39 36 37 32 35 37 39 40 44 39 50 46 36 46 46 52 47 47 51 49 38 73 62 66 69 61 55 54 50 46 45 46 46 44 42 39 37
33 36 36 35 36 40 42 41 34 38 42 47 41 32 44 46 42 43 39 40 44 45 35 35 48 45 51 62 77 59 66 66 57 51 50 46 43 46 47 45 43 41 39
33 35 36 37 39 40 42 48 47 48 48 46 41 35 44 46 40 38 43 38 34 35 32 38 35 44 49 41 63 68 64 63 58 55 50 50 49 49 49 48 45 44 42
33 35 36 40 39 40 46 50 45 43 44 44 38 40 42 42 41 38 38 37 36 38 33 37 38 32 40 58 71 63 65 60 54 53 51 53 49 47 46 45 45 45 44
33 35 36 39 42 44 48 49 50 46 42 46 44 44 39 35 36 34 28 28 41 38 36 31 33 29 27 48 59 67 61 58 57 57 52 48 50 46 45 45 45 44 43
38 33 36 39 42 45 44 46 50 55 51 48 48 46 42 37 37 35 28 30 30 31 26 25 27 24 31 52 52 70 59 62 56 55 50 46 48 47 46 45 43 43 42
Wind_Direction
323 320 319 317 314 311 308 304 299 294 289 284 278 273 268 264 261 259 256 251 247 243 239 234 226 222 222 221 216 215 211 212 218 215 212 182 175 177 173 174 174 174 172
325 322 320 317 314 311 308 305 301 295 290 285 279 272 264 258 257 258 257 253 250 246 240 236 227 221 218 218 213 209 207 204 207 197 204 182 177 174 166 173 175 172 171
327 323 321 318 316 314 312 308 302 295 290 285 280 272 264 261 259 257 256 254 251 248 244 235 229 221 215 216 211 209 203 202 205 217 197 182 179 171 165 173 172 172 169
327 324 322 321 320 318 314 310 306 302 296 288 280 272 267 262 259 257 256 253 249 248 245 239 231 222 213 213 209 205 202 199 209 191 184 181 181 172 176 174 172 171 169
328 326 324 322 323 319 314 312 307 300 293 287 280 273 269 265 262 259 255 252 248 245 243 242 234 226 214 211 207 199 199 199 202 201 177 178 177 177 176 174 173 170 170
328 325 323 324 321 319 315 309 302 298 294 289 284 278 273 270 266 260 254 250 246 241 239 238 232 231 216 209 203 193 197 199 205 186 176 182 176 174 178 175 173 170 169
327 327 327 326 324 320 316 310 303 299 296 293 290 285 279 271 265 260 254 249 245 240 235 234 231 229 216 208 199 189 198 197 199 177 180 185 174 177 179 174 173 170 168
332 331 328 326 325 323 319 316 312 308 304 298 292 286 278 266 263 254 251 247 241 235 232 229 228 226 217 206 196 189 193 195 192 188 191 182 176 178 176 173 173 171 165
332 330 329 329 329 327 325 321 314 309 303 293 284 280 277 255 246 255 249 244 237 232 228 223 222 220 217 203 193 187 194 196 193 193 188 181 179 179 176 173 172 171 163
332 331 331 333 332 330 326 321 315 310 304 299 283 278 275 269 248 238 240 238 230 225 224 219 214 212 212 200 190 188 191 190 169 171 180 181 180 179 174 173 173 171 163
335 337 337 336 335 330 326 321 318 313 308 301 292 280 272 266 256 244 232 232 227 219 218 212 207 206 209 194 185 187 183 190 187 196 178 179 181 179 174 174 173 169 164
342 341 340 339 336 331 328 327 320 310 303 297 289 278 268 261 252 242 234 226 224 213 213 201 198 205 197 184 181 183 186 187 191 183 183 180 179 178 173 174 172 170 166
347 347 345 344 338 335 336 328 318 312 306 299 290 279 268 260 251 240 227 215 216 204 204 197 198 198 180 175 177 179 182 190 183 178 177 178 178 176 173 175 171 171 169
351 350 349 345 343 344 337 327 323 318 312 305 295 283 276 264 249 234 216 208 205 198 196 190 193 176 172 172 173 172 177 176 170 166 171 176 176 174 173 175 171 173 170
355 353 350 350 348 344 337 333 328 326 319 307 299 290 275 257 234 212 200 195 185 179 177 181 176 174 170 167 174 168 173 167 165 166 170 175 174 173 174 173 172 174 171
359 357 356 354 351 347 342 339 339 337 326 317 316 319 305 224 176 170 171 164 167 163 154 172 171 168 164 159 163 171 168 161 164 164 169 173 173 174 174 172 174 174 174
5 3 0 360 358 355 349 351 352 349 343 350 1 7 107 151 155 158 158 154 152 144 143 158 159 159 156 158 168 173 164 164 163 164 168 171 173 173 175 173 175 175 176
12 9 5 9 4 1 4 4 5 26 40 53 57 80 108 112 134 139 134 139 142 141 141 145 148 154 164 159 161 163 157 163 165 163 166 171 174 174 174 175 176 178 177
18 14 12 19 15 17 16 15 28 48 54 75 84 98 98 102 113 123 129 128 128 132 133 146 150 149 157 155 165 159 165 158 158 160 164 170 175 175 175 176 179 179 180
24 21 17 25 25 29 25 32 50 63 65 74 82 88 92 103 115 125 132 132 116 134 132 149 156 150 147 166 148 156 152 157 155 158 162 167 173 176 175 180 181 182 182
30 27 21 35 36 34 36 50 59 74 82 85 87 95 92 111 117 125 126 125 119 134 137 148 158 167 152 156 157 156 156 156 159 161 163 165 169 174 177 180 182 184 185
36 34 28 44 48 45 45 57 62 79 88 90 103 94 107 112 112 116 125 123 117 136 139 155 156 154 158 158 154 160 160 160 159 162 165 163 169 173 178 182 184 185 187
40 40 36 47 56 52 54 61 60 71 85 90 88 86 96 106 108 110 117 121 127 136 130 143 137 156 156 152 169 155 163 163 166 162 167 168 173 175 178 182 183 188 191
46 48 46 51 61 61 62 69 69 72 79 89 95 90 85 99 109 106 119 118 121 130 130 142 142 149 165 158 156 166 168 165 165 167 173 173 174 178 178 181 186 190 194
51 54 56 57 63 69 67 70 72 75 83 88 97 91 90 95 97 107 113 119 129 124 135 141 146 150 150 161 165 172 171 169 173 174 173 181 175 178 180 184 186 190 196
52 57 60 65 66 71 73 73 76 76 77 77 89 87 91 95 100 98 123 117 131 134 139 136 133 141 162 166 167 171 177 174 183 175 175 183 180 179 182 186 189 192 196
Height
3055 3049 3043 3037 3032 3027 3022 3019 3015 3012 3010 3009 3008 3007 3007 3007 3007 3009 3012 3016 3017 3021 3025 3030 3038 3046 3054 3063 3073 3080 3087 3093 3095 3100 3100 3110 3117 3125 3129 3137 3143 3148 3153
3047 3042 3035 3029 3024 3019 3014 3010 3006 3003 3001 3000 2999 2998 2998 2998 2999 3000 3003 3006 3009 3012 3016 3021 3028 3036 3045 3055 3065 3073 3083 3087 3091 3094 3099 3108 3116 3121 3124 3133 3142 3147 3153
3040 3034 3028 3022 3016 3010 3005 3001 2998 2995 2993 2991 2990 2989 2989 2989 2990 2992 2994 2997 3000 3003 3006 3011 3017 3026 3036 3046 3057 3066 3077 3085 3082 3090 3100 3107 3115 3121 3125 3133 3142 3148 3152
3033 3027 3020 3013 3008 3002 2997 2994 2989 2985 2982 2981 2980 2980 2978 2979 2981 2983 2985 2987 2990 2994 2998 3002 3007 3016 3025 3035 3048 3060 3071 3080 3086 3084 3093 3105 3115 3119 3126 3134 3141 3147 3153
3025 3019 3012 3007 3001 2996 2991 2986 2982 2978 2976 2973 2972 2971 2970 2969 2971 2972 2974 2977 2981 2984 2989 2992 3000 3007 3015 3026 3039 3054 3067 3077 3076 3083 3094 3105 3113 3119 3127 3134 3141 3148 3154
3020 3014 3008 3001 2996 2990 2984 2980 2976 2972 2968 2964 2962 2961 2960 2960 2960 2962 2964 2966 2970 2974 2979 2984 2991 2997 3006 3017 3031 3047 3061 3071 3079 3085 3094 3105 3111 3117 3127 3134 3142 3148 3154
3015 3008 3001 2995 2989 2983 2978 2973 2968 2964 2960 2955 2951 2950 2950 2949 2949 2950 2953 2955 2958 2963 2969 2974 2982 2988 2998 3008 3023 3039 3054 3062 3074 3084 3093 3102 3108 3118 3126 3133 3142 3148 3154
3008 3001 2995 2990 2983 2977 2971 2965 2959 2954 2951 2946 2941 2939 2940 2941 2938 2939 2940 2944 2947 2951 2957 2964 2971 2979 2989 3000 3014 3030 3044 3058 3065 3083 3094 3101 3108 3117 3125 3133 3142 3149 3154
3002 2997 2991 2984 2977 2969 2963 2957 2951 2946 2941 2939 2934 2931 2929 2932 2930 2931 2930 2933 2937 2941 2946 2954 2961 2971 2981 2992 3006 3022 3039 3052 3065 3073 3088 3099 3108 3116 3125 3134 3142 3150 3155
3000 2994 2986 2978 2970 2963 2956 2950 2943 2937 2932 2930 2927 2923 2920 2921 2923 2923 2923 2925 2929 2933 2938 2944 2952 2963 2973 2984 2998 3015 3034 3047 3039 3068 3084 3096 3107 3116 3125 3134 3143 3151 3155
2996 2988 2980 2972 2965 2958 2950 2942 2936 2930 2925 2921 2919 2916 2914 2912 2914 2914 2915 2917 2921 2926 2931 2937 2945 2956 2964 2978 2994 3009 3027 3045 3056 3069 3081 3094 3106 3115 3125 3135 3143 3151 3157
2992 2985 2977 2968 2960 2951 2943 2935 2929 2923 2918 2913 2909 2906 2904 2903 2904 2905 2907 2909 2912 2917 2923 2929 2939 2948 2959 2975 2991 3008 3023 3037 3052 3070 3081 3093 3105 3116 3125 3135 3144 3152 3159
2989 2982 2972 2963 2954 2944 2936 2929 2922 2915 2908 2902 2897 2894 2892 2892 2892 2894 2897 2901 2905 2911 2917 2924 2933 2944 2957 2973 2990 3006 3020 3033 3036 3062 3081 3094 3105 3116 3126 3137 3144 3153 3160
2986 2977 2968 2958 2948 2940 2932 2923 2915 2906 2898 2892 2887 2882 2880 2880 2881 2883 2887 2892 2900 2907 2913 2921 2931 2941 2955 2973 2990 3004 3021 3033 3046 3066 3082 3095 3106 3116 3127 3138 3145 3155 3161
2984 2975 2965 2955 2946 2936 2927 2918 2908 2899 2890 2883 2877 2873 2870 2869 2871 2875 2879 2886 2896 2904 2913 2920 2929 2942 2957 2976 2992 3007 3022 3036 3051 3068 3083 3096 3107 3118 3129 3138 3147 3156 3162
2983 2974 2964 2954 2944 2934 2923 2912 2901 2893 2884 2877 2870 2866 2863 2863 2866 2870 2875 2884 2894 2904 2915 2924 2933 2947 2964 2978 2990 3008 3022 3037 3056 3070 3084 3098 3109 3120 3131 3139 3149 3157 3164
2982 2973 2963 2953 2942 2931 2920 2908 2898 2889 2881 2874 2867 2864 2862 2864 2867 2872 2878 2887 2897 2907 2913 2929 2942 2956 2970 2982 2997 3011 3025 3043 3060 3075 3088 3100 3112 3123 3133 3142 3152 3159 3166
2982 2973 2963 2953 2943 2932 2919 2907 2897 2889 2881 2875 2871 2869 2869 2871 2874 2879 2887 2896 2905 2914 2923 2939 2950 2964 2974 2988 3002 3015 3028 3047 3064 3079 3091 3104 3116 3126 3135 3145 3153 3160 3167
2984 2976 2965 2955 2945 2934 2921 2909 2897 2889 2882 2879 2879 2878 2880 2882 2885 2891 2899 2906 2916 2926 2936 2945 2956 2965 2978 2995 3006 3018 3035 3054 3070 3083 3096 3108 3119 3128 3137 3146 3154 3161 3168
2988 2978 2967 2958 2948 2937 2925 2914 2904 2898 2893 2890 2891 2891 2892 2895 2900 2906 2911 2916 2927 2939 2948 2957 2966 2974 2986 2996 3011 3020 3039 3059 3071 3082 3096 3108 3118 3128 3137 3146 3153 3161 3168
2991 2982 2973 2964 2954 2943 2932 2921 2914 2911 2908 2907 2907 2908 2910 2912 2917 2922 2926 2931 2938 2949 2957 2966 2974 2984 2995 3004 3016 3033 3045 3060 3074 3082 3092 3104 3114 3123 3133 3143 3152 3160 3167
2997 2990 2979 2971 2962 2952 2942 2934 2925 2922 2920 2922 2924 2923 2925 2929 2931 2935 2939 2946 2955 2963 2969 2977 2983 2993 3000 3015 3027 3037 3050 3059 3071 3085 3095 3104 3115 3124 3133 3141 3149 3158 3165
3003 2997 2987 2978 2969 2963 2954 2946 2939 2935 2933 2935 2937 2936 2939 2942 2946 2951 2957 2963 2969 2977 2986 2986 2994 3003 3013 3021 3031 3044 3056 3063 3071 3082 3095 3100 3109 3118 3128 3137 3146 3154 3162
3010 3003 2995 2986 2979 2973 2967 2961 2954 2951 2949 2950 2951 2951 2953 2957 2960 2965 2970 2972 2978 2985 2993 2998 3007 3013 3019 3027 3037 3048 3057 3068 3080 3086 3092 3100 3111 3121 3129 3136 3143 3151 3158
3018 3011 3006 2998 2989 2983 2980 2976 2969 2964 2962 2961 2962 2965 2968 2970 2973 2976 2981 2985 2989 2994 3000 3007 3014 3019 3026 3033 3044 3053 3062 3070 3076 3084 3095 3109 3111 3121 3128 3135 3142 3149 3156
3025 3020 3015 3009 3001 2995 2992 2988 2982 2978 2976 2975 2974 2976 2979 2982 2985 2989 2994 2997 3002 3005 3010 3016 3021 3024 3029 3040 3049 3060 3070 3073 3079 3090 3100 3111 3115 3121 3126 3134 3141 3147 3153